Starlink 2436

operational
NORAD ID: 48101 Int'l Des: 2021-027 Owner: SPXS Country: US Constellation: starlink
LEOCIRCULARSTARLINK_TYPE

Über Starlink 2436

Beschreibung wird geladen...

Live-Position

3D-Globus wird geladen...

Nächste Überflüge

Höhenverlauf

Altitude vs Time

uPlot chart will show altitude changes over time

Zweizeiliger Elementsatz

1 48101U 21027K 25351.78542962 .00001828 00000-0 14155-3 0 9993
2 48101 53.0541 169.5056 0001472 102.8406 257.2747 15.06406112260212
Epoch: 17. Dez. 2025 • Age: 14 hours

Aktueller Status

Höhe 556.4 km
Geschwindigkeit 7.58 km/s
Subsatellitenpunkt -28.23°S, 79.38°W
Startdatum 7. Apr. 2021
Alter 4.6 years
Typ internet

Technische Details

Klassifizierung Payload
Masse 260.00 kg
Trockenmasse 248.00 kg
Gesamtmasse 260.00 kg
Länge 0.20 m
Durchmesser 2.80 m
Spannweite 9.00 m
Form Box + pan
Hersteller SPXS
Bus-Typ Starlink
Phasenstatus In Orbit
Besitzer/Staat SPXS/US

Große Konstellationen

Loading constellations...